Location: Newark
(7.0858°N, 171.3717°E)
Time: 04:02:01
(UTC+00:00)

Vanguard 2 - Pass Details

Date: 25 November 2020
Orbit: 553 x 2937 km, 32.9° (Epoch: 26 January)

Event Time Altitude Azimuth Distance (km) Brightness Sun altitude
Rises 21:10:07 0° 250° (WSW) 4,905 11.3 35.2°
Reaches altitude 10° 21:14:14 10° 256° (WSW) 3,495 10.6 36.1°
Maximum altitude 21:21:46 39° 322° (NW) 1,416 8.8 37.7°
Drops below altitude 10° 21:26:40 10° 32° (NNE) 2,255 10.0 38.7°
Sets 21:28:49 0° 41° (NE) 3,006 10.7 39.1°
